Temp
16 15 15 15 16 15 16 16 16 16 17 17 17 17 17 17 17 17 15 14 14 14 14 14 13 13 12 12 12 12 11 11 11 11 11 11 11 10 10 10 10 10 10
15 15 15 15 14 15 15 16 16 16 17 17 17 17 17 16 16 17 17 14 14 14 14 13 13 13 12 12 12 11 11 11 11 11 11 10 10 10 10 10 10 9 9
15 15 14 14 14 15 15 16 16 17 17 17 17 16 16 16 16 16 17 16 14 14 14 13 13 13 12 12 12 11 11 11 11 11 10 10 10 10 9 9 9 9 9
15 14 14 14 14 14 15 15 16 17 17 18 17 17 17 16 16 16 17 17 14 14 13 13 13 13 13 12 12 11 11 11 11 10 10 10 9 9 9 10 9 9 9
14 14 14 14 14 14 14 15 16 17 17 18 17 17 17 16 16 16 16 16 16 16 15 13 13 13 13 12 12 12 11 11 10 10 10 10 9 9 10 10 10 10 9
14 14 14 14 13 14 14 15 16 16 18 18 17 17 16 16 16 16 16 16 16 16 16 15 13 13 12 12 12 12 12 11 11 11 10 10 10 10 10 11 11 11 10
14 14 14 13 13 13 14 14 16 17 17 17 17 16 16 15 15 15 15 15 16 15 15 15 15 15 13 12 12 12 12 12 12 11 11 10 10 10 11 11 11 11 10
14 14 14 13 13 12 13 14 16 16 17 17 17 17 15 14 14 15 15 15 15 15 15 15 15 15 15 14 13 12 12 12 12 12 11 11 11 11 10 11 11 11 11
14 14 13 13 13 13 13 14 15 16 17 16 18 18 18 18 16 15 14 15 14 14 15 15 14 14 14 14 14 12 13 13 12 12 12 12 12 12 12 12 12 12 12
13 13 13 13 13 13 13 14 15 16 17 16 17 18 19 20 19 17 16 15 14 14 14 14 14 14 14 14 14 14 13 14 13 13 13 13 12 12 12 12 12 12 12
12 12 13 13 13 13 13 14 15 15 16 17 16 17 17 17 18 20 18 16 15 14 14 14 14 15 14 14 14 13 14 14 14 14 14 14 13 13 13 12 13 13 12
13 13 13 13 13 13 13 13 14 14 15 16 15 16 17 18 18 19 19 19 17 16 14 14 14 14 15 15 14 14 14 16 16 15 15 15 14 14 14 13 13 12 12
13 13 13 13 12 12 12 13 13 14 14 15 15 16 16 17 18 18 19 19 18 18 17 16 15 15 14 15 16 16 15 16 16 16 16 16 15 15 15 14 14 14 13
13 13 13 13 12 12 13 13 12 13 14 14 15 15 16 15 16 17 18 18 18 18 18 17 16 15 16 16 18 17 17 17 17 17 17 17 16 16 15 15 15 15 14
13 13 12 12 12 13 13 13 13 13 13 13 14 14 15 15 16 16 16 17 17 17 19 19 17 16 16 16 15 16 16 16 17 18 17 17 17 17 17 16 16 16 16
12 13 12 12 12 12 12 12 12 12 12 13 13 13 14 15 15 15 15 14 15 15 17 17 17 17 16 16 15 15 15 17 17 17 17 17 18 18 17 17 17 17 16
12 12 12 12 12 12 12 11 12 12 11 11 12 12 13 14 13 13 13 13 13 13 13 14 14 15 15 16 16 16 15 14 15 16 17 17 18 18 18 17 17 17 17
12 12 12 12 12 12 12 12 12 12 11 11 12 11 12 12 12 12 13 13 12 12 11 12 13 14 14 15 16 16 15 16 15 15 15 17 18 17 17 17 17 17 16
12 12 12 12 12 12 12 12 12 12 12 12 12 12 12 12 12 12 12 12 12 12 12 11 12 14 16 16 16 16 16 16 15 15 15 14 15 15 16 16 16 16 15
13 12 12 12 12 12 12 13 13 13 13 12 13 12 12 13 13 13 13 13 13 13 13 13 14 15 15 15 16 16 16 16 16 16 16 15 15 14 14 13 13 12 13
13 14 14 13 13 12 10 13 13 12 12 13 13 13 14 14 14 14 14 14 14 14 14 14 14 15 15 15 16 16 16 16 16 16 15 15 15 15 12 11 10 10 10
10 10 11 11 10 7 6 10 11 11 11 12 12 13 13 13 13 13 13 13 14 14 14 14 14 14 14 15 15 15 16 15 15 16 15 14 13 9 4 3 2 5 7
5 5 4 4 4 3 4 6 7 9 9 9 9 9 10 11 11 11 11 12 12 12 12 12 12 13 13 12 12 13 13 13 13 13 11 11 2 1 -2 -3 -3 0 1
1 0 0 0 0 -1 2 5 6 7 6 5 4 4 4 5 6 6 8 9 10 9 8 8 7 5 3 4 5 5 6 6 5 4 4 1 -2 -4 -4 -4 -3 -3 -2
0 -1 -1 -1 -1 -3 -2 2 4 5 2 -1 -3 -2 -1 -1 1 4 5 5 6 3 -0 1 -1 -1 -1 -0 1 2 1 2 3 2 0 -0 -2 -4 -5 -5 -5 -5 -5
-0 -1 -1 -2 -3 -2 -4 -1 -1 -1 -2 -3 -4 -4 -5 -4 -2 2 1 1 -2 -4 -4 -3 -3 -3 -3 -3 -3 -4 -4 -2 -1 -1 -5 -4 -4 -5 -5 -6 -6 -6 -6
Height
781 784 788 792 794 799 803 808 816 822 827 830 835 839 840 842 845 846 850 854 857 858 862 864 866 867 869 870 872 873 874 877 878 879 880 883 885 885 885 885 886 887 888
778 782 785 790 793 797 802 807 814 821 826 829 835 838 841 842 844 846 849 855 857 860 863 865 866 868 870 872 873 874 874 878 879 881 881 883 885 885 885 886 887 888 888
775 779 784 788 792 796 802 807 814 819 824 829 834 838 840 842 844 846 849 853 858 860 863 865 866 868 870 872 874 875 875 878 879 881 882 883 885 885 885 885 887 888 888
774 779 783 787 790 794 801 806 812 817 822 827 832 835 838 842 844 847 849 853 856 860 863 865 867 868 870 871 873 874 876 877 878 880 881 882 883 885 884 884 886 886 887
772 775 779 784 787 793 799 804 811 815 820 825 830 834 837 841 844 846 850 853 854 857 861 863 867 869 870 872 872 873 875 877 877 879 879 880 881 882 882 883 884 885 886
767 769 775 779 786 791 798 804 808 814 818 823 828 833 837 840 843 845 849 851 853 856 859 861 865 867 868 870 871 872 874 875 876 877 878 879 879 879 879 880 882 883 884
756 763 770 775 781 788 795 802 806 811 817 822 827 833 836 839 843 845 848 850 850 853 857 860 861 863 865 867 868 869 871 873 873 874 876 876 877 877 876 878 879 880 881
762 758 762 771 777 785 793 799 804 809 814 819 822 828 834 841 842 843 845 847 847 850 853 857 859 860 862 863 864 865 866 868 870 872 873 873 874 874 874 875 876 876 877
757 759 759 767 774 781 788 796 800 805 810 816 818 820 826 827 835 839 842 844 845 848 849 852 855 856 858 859 860 860 860 863 864 867 868 869 870 870 870 871 872 872 873
752 754 758 764 771 778 786 792 798 802 807 812 816 817 818 817 823 831 837 840 842 844 845 847 849 850 852 854 855 855 855 857 859 861 862 864 864 865 865 866 867 867 867
752 753 756 762 767 775 784 789 795 800 805 809 812 816 819 820 821 820 826 833 837 838 839 841 842 843 844 846 848 848 849 850 852 854 855 856 858 859 859 859 859 859 859
753 755 758 763 768 775 781 787 791 796 801 806 810 813 815 816 818 818 820 823 828 831 833 835 836 838 838 838 840 841 843 843 845 847 848 848 849 850 850 851 851 851 851
752 756 758 763 767 772 778 783 787 792 797 802 806 809 812 813 815 817 817 818 823 824 827 828 830 832 832 832 832 833 835 835 837 838 838 839 839 840 841 842 843 843 843
752 754 758 760 766 770 775 780 785 789 794 798 802 806 808 810 813 814 816 819 818 819 819 822 825 826 825 825 825 826 827 827 829 828 828 829 830 830 831 831 831 832 831
749 752 755 757 762 766 772 776 781 785 789 794 798 800 803 806 810 811 813 814 815 815 811 812 819 820 819 818 819 820 819 818 819 823 820 820 820 821 821 821 820 820 820
746 749 752 755 757 763 767 772 776 781 786 789 792 796 798 801 804 807 808 810 812 812 809 812 812 813 814 812 813 813 812 813 812 812 811 811 811 811 811 810 809 808 807
744 746 750 754 757 760 764 767 771 776 779 784 788 790 792 797 798 800 802 804 806 809 808 807 808 807 809 808 807 807 806 804 803 801 801 801 800 799 799 798 797 796 795
744 746 748 751 755 758 762 764 769 772 775 779 782 785 786 790 791 794 795 797 798 800 803 799 800 799 800 798 799 797 796 795 793 792 790 789 788 787 786 785 783 782 781
743 745 748 750 753 756 759 761 765 768 771 773 775 779 780 783 785 786 787 789 791 792 793 793 789 789 787 788 787 785 783 782 782 781 779 776 774 773 771 770 769 769 767
742 744 746 749 752 755 757 759 761 763 765 768 770 772 773 775 777 779 780 780 782 782 781 780 777 775 777 776 776 774 770 770 769 768 766 764 762 759 757 756 755 755 753
740 743 745 748 751 752 751 754 757 760 762 763 764 765 766 768 769 770 771 770 772 771 770 769 768 766 765 765 763 762 759 757 754 757 753 752 752 751 745 741 740 739 739
739 740 742 745 746 748 750 751 754 756 758 759 760 760 760 761 761 762 762 763 764 764 761 760 759 757 755 752 751 750 748 748 741 748 744 744 739 737 735 734 731 730 729
742 742 744 746 748 749 750 750 750 751 752 753 754 753 753 754 753 752 753 754 755 754 753 753 749 747 745 745 744 741 740 739 734 735 735 736 733 733 732 733 731 728 725
746 748 750 751 751 752 751 749 749 749 751 750 749 749 750 749 748 746 746 747 748 742 740 741 741 740 739 736 737 735 734 733 731 731 732 731 732 734 735 733 731 732 728
751 752 755 756 756 755 751 748 748 749 749 751 752 751 750 749 746 744 743 743 742 741 740 739 739 739 738 735 732 730 730 730 726 727 728 729 731 731 733 736 733 732 731
756 758 760 761 761 760 753 750 749 750 751 753 754 755 753 750 746 741 739 740 741 744 743 742 741 740 738 737 735 733 732 731 730 726 734 733 732 736 737 736 731 739 733
Wind_Speed
22 22 21 24 29 30 32 29 25 22 20 18 17 15 14 11 12 12 14 16 17 16 16 16 16 16 15 16 15 15 15 14 14 13 13 12 12 12 12 11 11 11 11
24 25 27 25 28 33 31 26 24 22 20 18 17 15 13 12 13 13 14 17 15 16 16 15 15 15 14 14 14 14 14 13 12 12 12 12 11 11 10 10 10 10 10
28 29 29 28 30 34 31 25 24 22 20 18 17 15 13 13 15 14 14 15 16 16 15 15 14 14 15 14 14 13 13 13 12 12 12 12 11 11 11 11 10 10 10
26 25 28 28 32 35 33 24 24 23 21 20 17 16 13 13 15 15 13 14 16 14 14 13 13 14 14 14 14 12 12 13 13 13 12 12 12 12 12 11 11 11 12
27 33 31 29 34 35 34 25 24 23 21 20 18 15 14 13 14 15 14 14 14 14 13 15 15 15 14 14 14 14 13 13 14 14 14 14 14 13 12 12 12 12 13
31 35 31 34 34 35 31 24 25 23 22 21 19 17 14 13 13 14 15 15 14 13 13 13 16 15 16 16 15 15 15 15 15 15 16 16 15 15 14 13 14 15 15
18 36 34 36 36 39 37 28 25 25 23 21 19 15 13 11 12 13 14 15 16 15 15 14 15 15 15 20 19 17 17 17 17 17 18 18 18 18 16 16 17 17 18
25 35 36 36 38 36 34 29 28 26 24 25 21 19 7 7 12 15 15 16 16 16 17 18 18 16 15 15 19 23 22 20 20 21 21 21 21 21 20 20 21 21 21
21 29 37 38 37 36 35 30 28 29 26 27 25 21 7 6 14 16 17 16 16 16 18 19 20 19 19 18 18 21 24 24 25 25 25 25 24 23 22 22 22 23 23
23 28 39 37 37 33 32 31 30 29 26 26 24 25 18 10 11 6 16 19 18 19 20 19 20 21 21 21 22 23 23 25 28 28 27 28 28 29 29 29 29 29 28
20 27 36 35 36 33 29 30 29 29 27 26 25 25 17 12 17 10 7 14 18 21 21 22 22 23 22 22 23 26 28 31 29 30 31 31 32 32 33 34 35 35 35
19 21 27 28 32 31 28 30 30 31 28 25 25 23 22 20 15 13 8 13 18 20 23 24 24 25 22 21 24 28 32 30 32 33 34 35 36 36 37 39 41 41 41
20 23 23 25 30 30 26 26 29 30 29 27 27 26 23 20 19 17 14 12 11 18 16 24 23 24 23 26 26 33 36 37 35 36 37 37 38 39 41 42 43 44 45
15 19 25 30 30 33 32 29 27 29 28 28 26 27 24 20 21 19 18 16 10 16 18 18 22 25 26 27 30 29 29 30 33 31 34 36 37 39 42 43 44 45 46
13 18 24 30 32 33 33 31 30 31 32 33 33 30 27 24 27 23 22 21 20 10 13 21 20 16 22 23 25 31 30 29 29 33 34 30 31 32 35 37 39 41 42
12 15 19 25 28 31 30 33 34 32 31 34 33 31 31 28 24 21 20 16 17 17 13 19 22 20 21 19 21 26 27 34 39 37 37 35 34 37 39 39 40 42 44
11 14 15 18 22 26 29 29 31 31 31 24 26 31 35 33 32 30 24 19 19 19 16 23 25 26 28 28 30 30 30 30 35 40 42 40 42 43 48 47 47 49 50
11 13 14 16 18 25 28 28 27 26 30 32 31 25 29 25 29 29 28 31 28 29 25 26 30 30 33 38 38 37 35 36 36 36 40 47 48 50 52 55 55 56 56
11 12 12 13 14 16 22 26 25 22 24 27 32 35 35 30 32 32 32 33 35 35 32 31 35 37 35 34 35 37 37 39 38 39 43 47 49 51 54 56 57 58 58
10 12 12 12 11 12 15 20 20 21 21 23 23 25 28 32 34 34 33 34 33 32 32 32 32 32 33 36 37 36 36 35 37 39 41 44 43 44 45 47 50 51 53
7 8 10 11 12 8 8 14 15 19 22 24 25 27 27 29 31 32 31 31 31 31 30 30 29 31 32 31 33 33 35 36 37 36 38 37 35 33 30 36 43 44 43
7 6 5 4 7 5 2 13 17 17 15 21 25 26 29 32 37 40 42 45 44 36 32 31 30 29 33 35 35 34 33 30 16 30 34 29 29 19 12 11 15 23 30
12 14 14 12 11 10 10 4 9 18 22 24 20 15 16 19 23 26 30 39 47 52 54 47 37 33 31 30 30 32 33 33 33 28 26 14 5 4 4 10 18 4 5
15 15 15 13 12 16 14 8 5 3 2 3 6 9 10 13 16 20 23 24 21 22 28 34 26 21 22 26 29 29 27 21 16 10 7 3 6 9 10 11 13 13 12
17 17 17 16 15 19 23 15 9 7 10 12 13 19 14 13 16 16 16 17 15 4 8 4 5 8 10 10 11 12 10 12 9 5 1 6 9 11 7 8 11 13 12
18 17 18 19 20 20 27 22 15 11 13 13 16 19 23 20 18 16 11 5 11 9 7 10 13 17 18 20 21 17 13 8 5 4 13 7 5 3 2 3 7 6 7
Wind_Direction
185 193 188 189 192 189 184 175 173 169 171 167 172 173 169 168 165 159 164 172 170 164 166 168 165 159 162 165 166 164 158 163 165 163 162 166 167 162 160 160 158 154 152
187 188 180 183 185 189 182 174 168 169 171 170 172 172 170 167 164 163 164 174 171 173 174 171 169 168 169 169 173 169 165 173 173 172 171 174 180 177 174 173 169 171 169
193 184 178 182 191 190 180 175 171 172 173 171 171 171 168 169 164 163 165 172 180 182 184 181 179 178 176 179 181 180 179 182 181 186 187 188 192 189 187 185 188 190 188
198 188 186 186 191 185 179 178 170 173 174 173 172 170 168 170 166 164 170 177 177 180 189 190 187 189 189 188 189 191 195 194 195 199 198 200 201 204 202 201 205 205 205
205 194 187 183 190 185 181 176 178 175 174 174 172 172 170 170 170 168 179 189 177 183 189 198 200 201 203 203 198 200 206 209 207 209 209 210 213 214 214 217 219 220 220
203 194 184 181 185 181 181 184 178 176 176 178 173 171 172 171 176 177 188 190 186 188 192 192 206 213 209 213 214 210 213 219 218 218 222 222 222 223 223 226 232 232 231
187 187 186 180 182 180 186 182 180 176 182 177 169 165 168 175 184 186 195 197 193 194 201 205 205 207 217 220 220 219 220 224 226 227 228 229 230 232 232 235 238 239 239
217 192 186 180 180 176 179 183 184 179 181 181 177 170 162 175 200 201 198 207 198 198 205 211 213 212 213 218 224 226 222 224 229 231 233 239 241 244 242 242 243 245 245
233 208 184 183 180 180 177 184 183 184 177 187 192 189 170 196 184 201 206 209 205 212 208 213 216 218 219 221 226 233 234 229 225 230 238 245 252 256 259 260 260 259 256
214 198 189 187 187 179 181 185 189 187 185 189 199 203 204 229 185 170 209 213 210 212 216 211 219 219 221 227 231 230 238 243 238 236 235 237 246 254 259 262 264 264 263
195 171 181 182 181 181 185 191 191 193 193 196 194 206 211 199 212 193 186 202 214 219 218 220 221 218 219 224 233 239 240 242 246 245 246 247 247 247 252 258 262 263 264
197 193 184 188 188 187 189 190 189 191 195 200 201 204 211 206 205 215 233 201 212 216 221 222 228 230 227 228 235 242 247 252 253 253 255 254 254 255 255 255 256 259 262
196 200 200 197 195 189 190 191 192 195 200 204 208 209 212 216 222 223 230 231 229 227 220 227 229 235 231 240 253 264 255 255 261 259 257 259 259 260 260 260 260 261 260
202 206 213 205 203 199 201 199 196 198 201 207 209 213 216 218 228 230 231 234 238 246 225 234 229 229 241 247 262 264 261 258 254 262 270 269 264 262 260 260 261 262 262
207 212 216 200 209 205 202 203 208 212 215 213 216 213 219 223 235 235 236 240 245 250 249 225 229 241 252 250 251 253 256 262 271 272 269 269 269 268 266 264 264 265 266
200 199 205 209 205 209 208 210 211 214 220 222 218 217 220 227 234 229 232 233 242 248 257 259 258 269 262 262 260 262 263 271 271 270 267 263 265 268 269 267 268 269 268
203 206 198 199 204 209 207 204 213 216 219 221 224 226 229 230 232 231 233 225 237 243 252 258 259 259 264 270 266 266 268 266 266 268 268 264 268 272 274 272 273 273 272
203 201 199 197 202 211 207 205 208 215 220 220 228 229 229 223 231 236 239 252 250 251 250 256 257 261 260 258 261 260 260 262 262 263 264 270 271 265 261 264 266 270 272
200 202 201 199 202 209 214 215 215 217 220 223 226 227 232 233 240 242 243 245 247 251 251 250 255 253 254 254 252 256 258 258 258 263 266 269 270 267 265 265 266 268 269
204 197 201 203 205 211 220 221 221 224 223 227 231 234 236 237 242 243 244 243 246 245 243 237 245 250 250 256 259 259 262 259 258 260 260 259 261 265 266 268 268 268 269
213 215 209 206 205 204 211 231 239 234 233 238 238 238 242 244 247 247 247 245 242 243 246 245 244 254 257 256 254 257 258 262 261 260 260 259 262 262 258 255 258 260 264
112 176 205 199 123 94 245 234 236 240 246 250 252 253 254 255 253 252 252 253 255 259 259 253 252 248 253 259 262 261 264 267 267 263 261 261 257 252 270 287 293 269 259
81 80 80 85 84 44 20 342 273 256 259 264 278 296 286 272 269 267 261 258 257 258 258 257 262 260 265 266 271 271 267 266 268 274 269 263 307 154 95 57 56 59 107
72 70 67 68 64 29 18 6 347 315 7 78 27 356 321 303 294 286 275 270 275 263 263 262 265 268 275 278 272 269 270 272 279 306 335 175 166 113 107 87 78 74 83
70 68 62 56 53 34 27 31 47 69 93 69 50 39 31 10 345 327 309 292 274 227 40 53 94 68 27 357 331 308 317 292 274 269 127 198 182 154 138 109 90 82 85
77 73 66 55 50 38 34 42 57 71 75 69 54 42 35 31 17 9 22 40 89 66 78 73 57 49 50 46 45 42 24 358 358 68 13 16 122 106 98 82 75 37 58